SKYNET 4E

Last updated on Sat Oct 05 2024 00:02:36 GMT+0000 (Coordinated Universal Time)

1 25639U 99009B 24278.03891605 -.00000025 00000+0 00000+0 0 9993 2 25639 11.6958 12.4837 0003428 199.7223 173.8420 1.00274233 45165
UTC large
Height (km)
Speed (km/s)
/
Latitude / Longitude
Inclination (degrees)
Orbital Period (minutes)
Azimuth
Elevation
Range (km)
Doppler Factor

Next 0 passes for location: London (51.5072 / 0.1276)

Sorry there are no passes over London.